Location: Unspecified
(36.9193°S, 174.7252°E)
Time: 10:36:11
(UTC+13:00)

Envisat - Pass Details

Date: 20 September 2021
Orbit: 764 x 766 km, 98.2° (Epoch: 16 October)

Event Time Altitude Azimuth Distance (km) Brightness Sun altitude
Rises 04:24:19 0° 24° (NNE) 3,220 6.3 -22.5°
Reaches altitude 10° 04:26:38 10° 27° (NNE) 2,302 5.6 -22.1°
Maximum altitude 04:31:37 61° 106° (ESE) 878 3.5 -21.1°
Drops below altitude 10° 04:36:41 10° 185° (S) 2,333 5.6 -20.1°
Sets 04:39:02 0° 188° (S) 3,267 6.3 -19.7°
